Time,TemperatureF,DewpointF,PressureIn,WindDirection,WindDirectionDegrees,WindSpeedMPH,WindSpeedGustMPH,Humidity,HourlyPrecipIn,Conditions,Clouds,dailyrainin,SolarRadiationWatts/m^2,SoftwareType,DateUTC
2013-04-06 00:04:00,35.0,18.0,-100.00,NW,322,0.0,0.0,49,0.00,,,0.00,0.000000,,2013-04-06 04:04:00,
2013-04-06 00:14:00,35.0,18.0,-100.00,NW,322,0.0,0.0,49,0.00,,,0.00,0.000000,,2013-04-06 04:14:00,
2013-04-06 00:43:00,32.0,17.0,-100.00,NW,326,0.0,0.0,53,0.00,,,0.00,0.000000,,2013-04-06 04:43:00,
2013-04-06 00:53:00,32.0,17.0,-100.00,NW,326,0.0,0.0,53,0.00,,,0.00,0.000000,,2013-04-06 04:53:00,
2013-04-06 01:02:00,32.0,17.0,-100.00,NW,326,0.0,0.0,53,0.00,,,0.00,0.000000,,2013-04-06 05:02:00,
2013-04-06 01:13:00,32.0,17.0,-100.00,NW,326,0.0,0.0,53,0.00,,,0.00,0.000000,,2013-04-06 05:13:00,
2013-04-06 01:43:00,30.0,13.0,-100.00,NW,322,0.0,0.0,48,0.00,,,0.00,0.000000,,2013-04-06 05:43:00,
2013-04-06 01:52:00,30.0,13.0,-100.00,NW,322,0.0,0.0,48,0.00,,,0.00,0.000000,,2013-04-06 05:52:00,
2013-04-06 02:03:00,30.0,13.0,-100.00,NW,322,0.0,0.0,48,0.00,,,0.00,0.000000,,2013-04-06 06:03:00,
2013-04-06 02:12:00,30.0,13.0,-100.00,NW,322,0.0,0.0,48,0.00,,,0.00,0.000000,,2013-04-06 06:12:00,
2013-04-06 02:43:00,29.0,12.0,-100.00,NW,322,0.0,0.0,49,0.00,,,0.00,0.000000,,2013-04-06 06:43:00,
2013-04-06 02:53:00,29.0,12.0,-100.00,NW,322,0.0,0.0,49,0.00,,,0.00,0.000000,,2013-04-06 06:53:00,
2013-04-06 03:04:00,29.0,12.0,-100.00,NW,322,0.0,0.0,49,0.00,,,0.00,0.000000,,2013-04-06 07:04:00,
2013-04-06 03:12:00,29.0,12.0,-100.00,NW,322,0.0,0.0,49,0.00,,,0.00,0.000000,,2013-04-06 07:12:00,
2013-04-06 03:45:00,27.0,13.0,-100.00,NW,322,0.0,0.0,55,0.00,,,0.00,0.000000,,2013-04-06 07:45:00,
2013-04-06 03:53:00,27.0,13.0,-100.00,NW,322,0.0,0.0,55,0.00,,,0.00,0.000000,,2013-04-06 07:53:00,
2013-04-06 04:02:00,27.0,13.0,-100.00,NW,322,0.0,0.0,55,0.00,,,0.00,0.000000,,2013-04-06 08:02:00,
2013-04-06 04:13:00,27.0,13.0,-100.00,NW,322,0.0,0.0,55,0.00,,,0.00,0.000000,,2013-04-06 08:13:00,
2013-04-06 04:43:00,25.0,15.0,-100.00,NW,315,0.0,0.0,64,0.00,,,0.00,0.000000,,2013-04-06 08:43:00,
2013-04-06 04:52:00,25.0,15.0,-100.00,NW,315,0.0,0.0,64,0.00,,,0.00,0.000000,,2013-04-06 08:52:00,
2013-04-06 05:02:00,25.0,15.0,-100.00,NW,315,0.0,0.0,64,0.00,,,0.00,0.000000,,2013-04-06 09:02:00,
2013-04-06 05:13:00,25.0,15.0,-100.00,NW,315,0.0,0.0,64,0.00,,,0.00,0.000000,,2013-04-06 09:13:00,
2013-04-06 05:43:00,25.0,17.0,-100.00,NW,311,0.0,0.0,70,0.00,,,0.00,0.000000,,2013-04-06 09:43:00,
2013-04-06 05:53:00,25.0,17.0,-100.00,NW,311,0.0,0.0,70,0.00,,,0.00,0.000000,,2013-04-06 09:53:00,
2013-04-06 06:03:00,25.0,17.0,-100.00,NW,311,0.0,0.0,70,0.00,,,0.00,0.000000,,2013-04-06 10:03:00,
2013-04-06 06:13:00,25.0,17.0,-100.00,NW,311,0.0,0.0,70,0.00,,,0.00,0.000000,,2013-04-06 10:13:00,
2013-04-06 06:43:00,24.0,18.0,-100.00,NW,306,0.0,0.0,76,0.00,,,0.00,0.000000,,2013-04-06 10:43:00,
2013-04-06 07:03:00,24.0,18.0,-100.00,NW,306,0.0,0.0,76,0.00,,,0.00,0.000000,,2013-04-06 11:03:00,
2013-04-06 07:13:00,24.0,18.0,-100.00,NW,306,0.0,0.0,76,0.00,,,0.00,0.000000,,2013-04-06 11:13:00,
2013-04-06 07:43:00,23.0,17.0,-100.00,WNW,284,0.0,0.0,79,0.00,,,0.00,3.000000,,2013-04-06 11:43:00,
2013-04-06 07:53:00,23.0,17.0,-100.00,WNW,284,0.0,0.0,79,0.00,,,0.00,3.000000,,2013-04-06 11:53:00,
2013-04-06 08:02:00,23.0,17.0,-100.00,WNW,284,0.0,0.0,79,0.00,,,0.00,3.000000,,2013-04-06 12:02:00,
2013-04-06 08:13:00,23.0,17.0,-100.00,WNW,284,0.0,0.0,79,0.00,,,0.00,3.000000,,2013-04-06 12:13:00,
2013-04-06 08:44:00,26.0,17.0,-100.00,WNW,301,0.0,0.0,69,0.00,,,0.00,25.000000,,2013-04-06 12:44:00,
2013-04-06 08:53:00,26.0,17.0,-100.00,WNW,301,0.0,0.0,69,0.00,,,0.00,25.000000,,2013-04-06 12:53:00,
2013-04-06 09:03:00,26.0,17.0,-100.00,WNW,301,0.0,0.0,69,0.00,,,0.00,25.000000,,2013-04-06 13:03:00,
2013-04-06 09:13:00,26.0,17.0,-100.00,WNW,301,0.0,0.0,69,0.00,,,0.00,25.000000,,2013-04-06 13:13:00,
2013-04-06 09:43:00,33.0,13.0,-100.00,North,357,0.0,0.0,43,0.00,,,0.00,218.000000,,2013-04-06 13:43:00,
2013-04-06 09:54:00,33.0,13.0,-100.00,North,357,0.0,0.0,43,0.00,,,0.00,218.000000,,2013-04-06 13:54:00,
2013-04-06 10:05:00,33.0,13.0,-100.00,North,357,0.0,0.0,43,0.00,,,0.00,218.000000,,2013-04-06 14:05:00,
2013-04-06 10:12:00,33.0,13.0,-100.00,North,357,0.0,0.0,43,0.00,,,0.00,218.000000,,2013-04-06 14:12:00,
2013-04-06 10:43:00,37.0,10.0,-100.00,East,88,0.0,0.0,32,0.00,,,0.00,446.000000,,2013-04-06 14:43:00,
2013-04-06 10:53:00,37.0,10.0,-100.00,East,88,0.0,0.0,32,0.00,,,0.00,446.000000,,2013-04-06 14:53:00,
2013-04-06 11:02:00,37.0,10.0,-100.00,East,88,0.0,0.0,32,0.00,,,0.00,446.000000,,2013-04-06 15:02:00,
2013-04-06 11:12:00,37.0,10.0,-100.00,East,88,0.0,0.0,32,0.00,,,0.00,446.000000,,2013-04-06 15:12:00,
2013-04-06 11:15:00,40.0,8.0,-100.00,SE,141,0.0,0.0,26,0.00,,,0.00,605.000000,,2013-04-06 15:15:00,
2013-04-06 11:43:00,40.0,8.0,-100.00,SE,141,0.0,0.0,26,0.00,,,0.00,605.000000,,2013-04-06 15:43:00,
2013-04-06 11:54:00,40.0,8.0,-100.00,SE,141,0.0,0.0,26,0.00,,,0.00,605.000000,,2013-04-06 15:54:00,
2013-04-06 12:05:00,40.0,8.0,-100.00,SE,141,0.0,0.0,26,0.00,,,0.00,605.000000,,2013-04-06 16:05:00,
2013-04-06 12:43:00,44.0,13.0,-100.00,SSW,195,0.0,0.0,28,0.00,,,0.00,713.000000,,2013-04-06 16:43:00,
2013-04-06 12:53:00,44.0,13.0,-100.00,SSW,195,0.0,0.0,28,0.00,,,0.00,713.000000,,2013-04-06 16:53:00,
2013-04-06 13:03:00,44.0,13.0,-100.00,SSW,195,0.0,0.0,28,0.00,,,0.00,713.000000,,2013-04-06 17:03:00,
2013-04-06 13:13:00,44.0,13.0,-100.00,SSW,195,0.0,0.0,28,0.00,,,0.00,713.000000,,2013-04-06 17:13:00,
2013-04-06 13:43:00,46.0,2.0,-100.00,SE,131,0.0,0.0,16,0.00,,,0.00,775.000000,,2013-04-06 17:43:00,
2013-04-06 13:53:00,46.0,2.0,-100.00,SE,131,0.0,0.0,16,0.00,,,0.00,775.000000,,2013-04-06 17:53:00,
2013-04-06 14:03:00,46.0,2.0,-100.00,SE,131,0.0,0.0,16,0.00,,,0.00,775.000000,,2013-04-06 18:03:00,
2013-04-06 14:13:00,46.0,2.0,-100.00,SE,131,0.0,0.0,16,0.00,,,0.00,775.000000,,2013-04-06 18:13:00,
2013-04-06 14:43:00,50.0,9.0,-100.00,SSE,156,0.0,0.0,19,0.00,,,0.00,762.000000,,2013-04-06 18:43:00,
2013-04-06 14:52:00,50.0,9.0,-100.00,SSE,156,0.0,0.0,19,0.00,,,0.00,762.000000,,2013-04-06 18:52:00,
2013-04-06 15:03:00,50.0,9.0,-100.00,SSE,156,0.0,0.0,19,0.00,,,0.00,762.000000,,2013-04-06 19:03:00,
2013-04-06 15:12:00,50.0,9.0,-100.00,SSE,156,0.0,0.0,19,0.00,,,0.00,762.000000,,2013-04-06 19:12:00,
2013-04-06 15:42:00,51.0,9.0,-100.00,SE,143,0.0,0.0,18,0.00,,,0.00,731.000000,,2013-04-06 19:42:00,
2013-04-06 15:54:00,51.0,9.0,-100.00,SE,143,0.0,0.0,18,0.00,,,0.00,731.000000,,2013-04-06 19:54:00,
2013-04-06 16:03:00,51.0,9.0,-100.00,SE,143,0.0,0.0,18,0.00,,,0.00,731.000000,,2013-04-06 20:03:00,
2013-04-06 16:13:00,51.0,9.0,-100.00,SE,143,0.0,0.0,18,0.00,,,0.00,731.000000,,2013-04-06 20:13:00,
2013-04-06 16:42:00,53.0,9.0,-100.00,SE,137,0.0,0.0,17,0.00,,,0.00,627.000000,,2013-04-06 20:42:00,
2013-04-06 16:53:00,53.0,9.0,-100.00,SE,137,0.0,0.0,17,0.00,,,0.00,627.000000,,2013-04-06 20:53:00,
2013-04-06 17:02:00,53.0,9.0,-100.00,SE,137,0.0,0.0,17,0.00,,,0.00,627.000000,,2013-04-06 21:02:00,
2013-04-06 17:14:00,53.0,9.0,-100.00,SE,137,0.0,0.0,17,0.00,,,0.00,627.000000,,2013-04-06 21:14:00,
2013-04-06 17:43:00,52.0,4.0,-100.00,SSE,150,0.0,0.0,14,0.00,,,0.00,478.000000,,2013-04-06 21:43:00,
2013-04-06 17:53:00,52.0,4.0,-100.00,SSE,150,0.0,0.0,14,0.00,,,0.00,478.000000,,2013-04-06 21:53:00,
2013-04-06 18:03:00,52.0,4.0,-100.00,SSE,150,0.0,0.0,14,0.00,,,0.00,478.000000,,2013-04-06 22:03:00,
2013-04-06 18:13:00,52.0,4.0,-100.00,SSE,150,0.0,0.0,14,0.00,,,0.00,478.000000,,2013-04-06 22:13:00,
2013-04-06 18:44:00,49.0,9.0,-100.00,SSE,153,0.0,0.0,19,0.00,,,0.00,243.000000,,2013-04-06 22:44:00,
2013-04-06 18:55:00,49.0,9.0,-100.00,SSE,153,0.0,0.0,19,0.00,,,0.00,243.000000,,2013-04-06 22:55:00,
2013-04-06 19:03:00,49.0,9.0,-100.00,SSE,153,0.0,0.0,19,0.00,,,0.00,243.000000,,2013-04-06 23:03:00,
2013-04-06 19:14:00,49.0,9.0,-100.00,SSE,153,0.0,0.0,19,0.00,,,0.00,243.000000,,2013-04-06 23:14:00,
2013-04-06 19:43:00,45.0,12.0,-100.00,SE,137,0.0,0.0,26,0.00,,,0.00,71.000000,,2013-04-06 23:43:00,
2013-04-06 19:53:00,45.0,12.0,-100.00,SE,137,0.0,0.0,26,0.00,,,0.00,71.000000,,2013-04-06 23:53:00,
2013-04-06 20:03:00,45.0,12.0,-100.00,SE,137,0.0,0.0,26,0.00,,,0.00,71.000000,,2013-04-07 00:03:00,
2013-04-06 20:13:00,45.0,12.0,-100.00,SE,137,0.0,0.0,26,0.00,,,0.00,71.000000,,2013-04-07 00:13:00,
2013-04-06 21:43:00,41.0,13.0,-100.00,SE,138,0.0,0.0,32,-99.99,,,0.00,0.000000,,2013-04-07 01:43:00,
2013-04-06 21:53:00,41.0,13.0,-100.00,SE,138,0.0,0.0,32,-99.99,,,0.00,0.000000,,2013-04-07 01:53:00,
2013-04-06 22:03:00,41.0,13.0,-100.00,SE,138,0.0,0.0,32,-99.99,,,0.00,0.000000,,2013-04-07 02:03:00,
2013-04-06 22:12:00,41.0,13.0,-100.00,SE,138,0.0,0.0,32,-99.99,,,0.00,0.000000,,2013-04-07 02:12:00,
2013-04-06 22:43:00,42.0,12.0,-100.00,SSE,160,0.0,0.0,29,0.00,,,0.00,0.000000,,2013-04-07 02:43:00,
2013-04-06 22:52:00,42.0,12.0,-100.00,SSE,160,0.0,0.0,29,0.00,,,0.00,0.000000,,2013-04-07 02:52:00,
2013-04-06 23:03:00,42.0,12.0,-100.00,SSE,160,0.0,0.0,29,0.00,,,0.00,0.000000,,2013-04-07 03:03:00,
2013-04-06 23:13:00,42.0,12.0,-100.00,SSE,160,0.0,0.0,29,0.00,,,0.00,0.000000,,2013-04-07 03:13:00,
2013-04-06 23:44:00,42.0,13.0,-100.00,SSE,161,0.0,0.0,30,0.00,,,0.00,0.000000,,2013-04-07 03:44:00,
2013-04-06 23:55:00,42.0,13.0,-100.00,SSE,161,0.0,0.0,30,0.00,,,0.00,0.000000,,2013-04-07 03:55:00,